Time,TemperatureF,DewpointF,PressureIn,WindDirection,WindDirectionDegrees,WindSpeedMPH,WindSpeedGustMPH,Humidity,HourlyPrecipIn,Conditions,Clouds,dailyrainin,SoftwareType,DateUTC
2013-07-12 00:02:00,68.4,45.7,29.62,West,274,9.0,17.0,44,0.00,,,0.00,meteohub,2013-07-12 06:02:00,
2013-07-12 00:08:00,68.4,45.0,29.62,West,276,7.0,15.0,43,0.00,,,0.00,meteohub,2013-07-12 06:08:00,
2013-07-12 00:14:00,68.5,45.1,29.62,West,271,12.0,15.0,43,0.00,,,0.00,meteohub,2013-07-12 06:14:00,
2013-07-12 00:20:00,68.7,45.3,29.62,West,269,9.0,14.0,43,0.00,,,0.00,meteohub,2013-07-12 06:20:00,
2013-07-12 00:26:00,68.5,45.1,29.62,West,272,6.0,14.0,43,0.00,,,0.00,meteohub,2013-07-12 06:26:00,
2013-07-12 00:32:00,68.5,45.1,29.62,WNW,290,6.0,12.0,43,0.00,,,0.00,meteohub,2013-07-12 06:32:00,
2013-07-12 00:38:00,68.4,45.0,29.62,WSW,246,5.0,11.0,43,0.00,,,0.00,meteohub,2013-07-12 06:38:00,
2013-07-12 00:44:00,68.4,45.0,29.62,WSW,247,5.0,10.0,43,0.00,,,0.00,meteohub,2013-07-12 06:44:00,
2013-07-12 00:50:00,68.4,45.0,29.62,WSW,250,4.0,11.0,43,0.00,,,0.00,meteohub,2013-07-12 06:50:00,
2013-07-12 00:56:00,68.4,45.0,29.62,West,266,11.0,11.0,43,0.00,,,0.00,meteohub,2013-07-12 06:56:00,
2013-07-12 01:02:00,68.4,44.4,29.62,West,274,3.0,11.0,42,0.00,,,0.00,meteohub,2013-07-12 07:02:00,
2013-07-12 01:08:00,68.2,44.8,29.62,West,274,3.0,11.0,43,0.00,,,0.00,meteohub,2013-07-12 07:08:00,
2013-07-12 01:14:00,67.8,44.4,29.62,WSW,240,6.0,11.0,43,0.00,,,0.00,meteohub,2013-07-12 07:14:00,
2013-07-12 01:20:00,67.6,44.4,29.62,WSW,246,4.0,10.0,43,0.00,,,0.00,meteohub,2013-07-12 07:20:00,
2013-07-12 01:26:00,67.5,44.8,29.62,WSW,246,4.0,10.0,44,0.00,,,0.00,meteohub,2013-07-12 07:26:00,
2013-07-12 01:32:00,66.9,44.2,29.62,WSW,237,8.0,9.0,44,0.00,,,0.00,meteohub,2013-07-12 07:32:00,
2013-07-12 01:38:00,66.7,45.3,29.62,SW,234,10.0,10.0,46,0.00,,,0.00,meteohub,2013-07-12 07:38:00,
2013-07-12 01:44:00,66.7,45.3,29.61,WSW,239,9.0,11.0,46,0.00,,,0.00,meteohub,2013-07-12 07:44:00,
2013-07-12 01:50:00,66.9,45.0,29.62,WSW,237,7.0,16.0,45,0.00,,,0.00,meteohub,2013-07-12 07:50:00,
2013-07-12 01:56:00,66.9,45.0,29.62,SW,234,11.0,16.0,45,0.00,,,0.00,meteohub,2013-07-12 07:56:00,
2013-07-12 02:02:00,66.9,44.2,29.62,WSW,241,5.0,14.0,44,0.00,,,0.00,meteohub,2013-07-12 08:02:00,
2013-07-12 02:09:00,66.9,45.0,29.61,SW,216,7.0,14.0,45,0.00,,,0.00,meteohub,2013-07-12 08:09:00,
2013-07-12 02:15:00,66.6,45.1,29.61,WSW,257,8.0,15.0,46,0.00,,,0.00,meteohub,2013-07-12 08:15:00,
2013-07-12 02:21:00,66.4,45.0,29.61,SW,232,11.0,15.0,46,0.00,,,0.00,meteohub,2013-07-12 08:21:00,
2013-07-12 02:27:00,65.8,45.7,29.60,SW,226,9.0,14.0,48,0.00,,,0.00,meteohub,2013-07-12 08:27:00,
2013-07-12 02:33:00,65.3,45.7,29.60,WSW,241,13.0,14.0,49,0.00,,,0.00,meteohub,2013-07-12 08:33:00,
2013-07-12 02:39:00,65.1,45.5,29.60,SW,231,13.0,15.0,49,0.00,,,0.00,meteohub,2013-07-12 08:39:00,
2013-07-12 02:45:00,65.5,45.3,29.61,SW,219,10.0,17.0,48,0.00,,,0.00,meteohub,2013-07-12 08:45:00,
2013-07-12 02:51:00,65.7,44.2,29.60,SW,221,10.0,17.0,46,0.00,,,0.00,meteohub,2013-07-12 08:51:00,
2013-07-12 02:57:00,65.5,45.9,29.60,SSW,210,7.0,14.0,49,0.00,,,0.00,meteohub,2013-07-12 08:57:00,
2013-07-12 03:03:00,64.8,46.2,29.60,SSW,198,4.0,12.0,51,0.00,,,0.00,meteohub,2013-07-12 09:03:00,
2013-07-12 03:09:00,63.9,46.4,29.60,SSW,197,4.0,11.0,53,0.00,,,0.00,meteohub,2013-07-12 09:09:00,
2013-07-12 03:15:00,63.5,46.6,29.59,SSW,199,9.0,9.0,54,0.00,,,0.00,meteohub,2013-07-12 09:15:00,
2013-07-12 03:21:00,63.3,46.4,29.59,SSW,211,7.0,9.0,54,0.00,,,0.00,meteohub,2013-07-12 09:21:00,
2013-07-12 03:27:00,63.7,46.2,29.59,SW,214,2.0,10.0,53,0.00,,,0.00,meteohub,2013-07-12 09:27:00,
2013-07-12 03:33:00,63.5,46.0,29.59,SW,214,2.0,10.0,53,0.00,,,0.00,meteohub,2013-07-12 09:33:00,
2013-07-12 03:39:00,63.3,45.9,29.59,SW,214,1.0,9.0,53,0.00,,,0.00,meteohub,2013-07-12 09:39:00,
2013-07-12 03:45:00,63.3,45.9,29.58,SW,214,0.0,6.0,53,0.00,,,0.00,meteohub,2013-07-12 09:45:00,
2013-07-12 03:51:00,63.1,45.1,29.58,SW,214,1.0,4.0,52,0.00,,,0.00,meteohub,2013-07-12 09:51:00,
2013-07-12 03:57:00,63.0,45.1,29.58,SW,214,0.0,3.0,52,0.00,,,0.00,meteohub,2013-07-12 09:57:00,
2013-07-12 04:03:00,62.2,44.4,29.58,SW,214,1.0,3.0,52,0.00,,,0.00,meteohub,2013-07-12 10:03:00,
2013-07-12 04:09:00,61.7,45.0,29.58,SW,214,0.0,3.0,54,0.00,,,0.00,meteohub,2013-07-12 10:09:00,
2013-07-12 04:15:00,61.5,44.8,29.58,SW,214,1.0,2.0,54,0.00,,,0.00,meteohub,2013-07-12 10:15:00,
2013-07-12 04:21:00,61.5,44.8,29.58,SW,214,1.0,3.0,54,0.00,,,0.00,meteohub,2013-07-12 10:21:00,
2013-07-12 04:27:00,62.1,44.8,29.58,SW,214,3.0,4.0,53,0.00,,,0.00,meteohub,2013-07-12 10:27:00,
2013-07-12 04:33:00,62.2,44.4,29.58,SW,214,5.0,5.0,52,0.00,,,0.00,meteohub,2013-07-12 10:33:00,
2013-07-12 04:39:00,62.4,44.1,29.59,SW,214,4.0,6.0,51,0.00,,,0.00,meteohub,2013-07-12 10:39:00,
2013-07-12 04:45:00,62.6,44.2,29.58,SW,215,7.0,7.0,51,0.00,,,0.00,meteohub,2013-07-12 10:45:00,
2013-07-12 04:51:00,63.7,45.1,29.58,SSW,212,1.0,9.0,51,0.00,,,0.00,meteohub,2013-07-12 10:51:00,
2013-07-12 04:57:00,63.9,44.2,29.58,SSW,212,4.0,9.0,49,0.00,,,0.00,meteohub,2013-07-12 10:57:00,
2013-07-12 05:03:00,63.5,44.6,29.59,SW,214,0.0,9.0,50,0.00,,,0.00,meteohub,2013-07-12 11:03:00,
2013-07-12 05:09:00,63.3,45.0,29.58,SW,214,4.0,7.0,51,0.00,,,0.00,meteohub,2013-07-12 11:09:00,
2013-07-12 05:15:00,63.5,44.6,29.59,SW,214,1.0,7.0,50,0.00,,,0.00,meteohub,2013-07-12 11:15:00,
2013-07-12 05:21:00,63.1,44.2,29.58,SW,214,2.0,4.0,50,0.00,,,0.00,meteohub,2013-07-12 11:21:00,
2013-07-12 05:27:00,62.6,44.2,29.58,SW,214,0.0,4.0,51,0.00,,,0.00,meteohub,2013-07-12 11:27:00,
2013-07-12 05:33:00,62.1,43.7,29.58,SW,214,3.0,4.0,51,0.00,,,0.00,meteohub,2013-07-12 11:33:00,
2013-07-12 05:40:00,62.1,43.7,29.58,SW,214,2.0,5.0,51,0.00,,,0.00,meteohub,2013-07-12 11:40:00,
2013-07-12 05:46:00,61.3,43.5,29.59,SW,214,7.0,7.0,52,0.00,,,0.00,meteohub,2013-07-12 11:46:00,
2013-07-12 05:52:00,61.3,44.1,29.59,WSW,242,8.0,8.0,53,0.00,,,0.00,meteohub,2013-07-12 11:52:00,
2013-07-12 05:58:00,62.4,44.6,29.59,SW,228,5.0,10.0,52,0.00,,,0.00,meteohub,2013-07-12 11:58:00,
2013-07-12 06:04:00,62.4,44.1,29.59,SW,227,2.0,10.0,51,0.00,,,0.00,meteohub,2013-07-12 12:04:00,
2013-07-12 06:10:00,61.5,43.7,29.59,SW,227,2.0,11.0,52,0.00,,,0.00,meteohub,2013-07-12 12:10:00,
2013-07-12 06:16:00,61.0,43.7,29.59,SW,227,3.0,7.0,53,0.00,,,0.00,meteohub,2013-07-12 12:16:00,
2013-07-12 06:22:00,61.0,43.7,29.60,SW,227,0.0,5.0,53,0.00,,,0.00,meteohub,2013-07-12 12:22:00,
2013-07-12 06:28:00,61.0,43.7,29.60,SW,227,0.0,4.0,53,0.00,,,0.00,meteohub,2013-07-12 12:28:00,
2013-07-12 06:34:00,61.5,43.7,29.59,SW,227,0.0,3.0,52,0.00,,,0.00,meteohub,2013-07-12 12:34:00,
2013-07-12 06:40:00,62.2,43.9,29.60,SW,227,0.0,1.0,51,0.00,,,0.00,meteohub,2013-07-12 12:40:00,
2013-07-12 06:46:00,62.4,44.1,29.60,SW,227,0.0,1.0,51,0.00,,,0.00,meteohub,2013-07-12 12:46:00,
2013-07-12 06:52:00,62.4,44.1,29.60,SW,227,0.0,2.0,51,0.00,,,0.00,meteohub,2013-07-12 12:52:00,
2013-07-12 06:58:00,62.8,43.9,29.60,SW,227,1.0,3.0,50,0.00,,,0.00,meteohub,2013-07-12 12:58:00,
2013-07-12 07:04:00,63.3,44.4,29.60,SW,227,0.0,4.0,50,0.00,,,0.00,meteohub,2013-07-12 13:04:00,
2013-07-12 07:10:00,64.0,45.0,29.60,SW,227,0.0,3.0,50,0.00,,,0.00,meteohub,2013-07-12 13:10:00,
2013-07-12 07:16:00,64.9,44.8,29.60,SW,214,1.0,8.0,48,0.00,,,0.00,meteohub,2013-07-12 13:16:00,
2013-07-12 07:22:00,65.5,44.8,29.60,SW,214,3.0,8.0,47,0.00,,,0.00,meteohub,2013-07-12 13:22:00,
2013-07-12 07:28:00,65.7,46.0,29.60,SW,221,2.0,8.0,49,0.00,,,0.00,meteohub,2013-07-12 13:28:00,
2013-07-12 07:34:00,65.8,46.8,29.60,SW,221,6.0,9.0,50,0.00,,,0.00,meteohub,2013-07-12 13:34:00,
2013-07-12 07:40:00,66.4,46.6,29.59,SSW,205,4.0,9.0,49,0.00,,,0.00,meteohub,2013-07-12 13:40:00,
2013-07-12 07:46:00,66.4,47.1,29.59,SSW,203,8.0,9.0,50,0.00,,,0.00,meteohub,2013-07-12 13:46:00,
2013-07-12 07:52:00,66.2,47.5,29.59,SSW,203,7.0,12.0,51,0.00,,,0.00,meteohub,2013-07-12 13:52:00,
2013-07-12 07:58:00,66.4,47.7,29.59,SSW,194,7.0,12.0,51,0.00,,,0.00,meteohub,2013-07-12 13:58:00,
2013-07-12 08:04:00,66.7,48.0,29.59,South,191,6.0,13.0,51,0.00,,,0.00,meteohub,2013-07-12 14:04:00,
2013-07-12 08:10:00,67.3,47.5,29.59,South,185,8.0,13.0,49,0.00,,,0.00,meteohub,2013-07-12 14:10:00,
2013-07-12 08:16:00,68.0,47.7,29.59,South,182,9.0,12.0,48,0.00,,,0.00,meteohub,2013-07-12 14:16:00,
2013-07-12 08:22:00,68.5,48.0,29.59,South,179,4.0,12.0,48,0.00,,,0.00,meteohub,2013-07-12 14:22:00,
2013-07-12 08:28:00,69.3,47.7,29.58,South,174,9.0,12.0,46,0.00,,,0.00,meteohub,2013-07-12 14:28:00,
2013-07-12 08:34:00,69.8,48.0,29.58,South,176,9.0,11.0,46,0.00,,,0.00,meteohub,2013-07-12 14:34:00,
2013-07-12 08:40:00,70.2,47.3,29.58,SSW,193,7.0,13.0,44,0.00,,,0.00,meteohub,2013-07-12 14:40:00,
2013-07-12 08:46:00,70.9,47.8,29.58,South,178,5.0,13.0,44,0.00,,,0.00,meteohub,2013-07-12 14:46:00,
2013-07-12 08:52:00,71.1,47.5,29.58,South,174,6.0,13.0,43,0.00,,,0.00,meteohub,2013-07-12 14:52:00,
2013-07-12 08:59:00,71.8,48.0,29.58,South,170,7.0,13.0,43,0.00,,,0.00,meteohub,2013-07-12 14:59:00,
2013-07-12 09:05:00,72.5,48.7,29.58,SSE,163,7.0,13.0,43,0.00,,,0.00,meteohub,2013-07-12 15:05:00,
2013-07-12 09:11:00,72.9,48.4,29.57,SE,139,1.0,10.0,42,0.00,,,0.00,meteohub,2013-07-12 15:11:00,
2013-07-12 09:17:00,73.2,47.5,29.57,SE,139,2.0,8.0,40,0.00,,,0.00,meteohub,2013-07-12 15:17:00,
2013-07-12 09:23:00,73.6,47.8,29.57,SE,136,4.0,8.0,40,0.00,,,0.00,meteohub,2013-07-12 15:23:00,
2013-07-12 09:29:00,73.9,48.7,29.56,SE,136,2.0,8.0,41,0.00,,,0.00,meteohub,2013-07-12 15:29:00,
2013-07-12 09:35:00,74.7,48.0,29.56,East,99,1.0,8.0,39,0.00,,,0.00,meteohub,2013-07-12 15:35:00,
2013-07-12 09:41:00,74.8,47.5,29.56,SE,146,8.0,10.0,38,0.00,,,0.00,meteohub,2013-07-12 15:41:00,
2013-07-12 09:47:00,75.6,48.2,29.56,East,95,2.0,10.0,38,0.00,,,0.00,meteohub,2013-07-12 15:47:00,
2013-07-12 09:53:00,75.7,47.7,29.55,SSE,162,7.0,10.0,37,0.00,,,0.00,meteohub,2013-07-12 15:53:00,
2013-07-12 09:59:00,75.6,47.5,29.55,SSE,151,6.0,11.0,37,0.00,,,0.00,meteohub,2013-07-12 15:59:00,
2013-07-12 10:05:00,76.3,47.3,29.55,SSW,205,5.0,12.0,36,0.00,,,0.00,meteohub,2013-07-12 16:05:00,
2013-07-12 10:11:00,76.5,47.5,29.55,SSE,163,6.0,12.0,36,0.00,,,0.00,meteohub,2013-07-12 16:11:00,
2013-07-12 10:17:00,76.8,46.4,29.55,SSE,156,5.0,12.0,34,0.00,,,0.00,meteohub,2013-07-12 16:17:00,
2013-07-12 10:23:00,77.5,49.3,29.55,South,186,9.0,9.0,37,0.00,,,0.00,meteohub,2013-07-12 16:23:00,
2013-07-12 10:29:00,77.7,49.5,29.54,SSE,162,5.0,11.0,37,0.00,,,0.00,meteohub,2013-07-12 16:29:00,
2013-07-12 10:35:00,78.1,48.2,29.54,SSE,161,13.0,17.0,35,0.00,,,0.00,meteohub,2013-07-12 16:35:00,
2013-07-12 10:41:00,78.1,47.5,29.54,SSW,206,10.0,19.0,34,0.00,,,0.00,meteohub,2013-07-12 16:41:00,
2013-07-12 10:47:00,78.3,48.4,29.55,South,177,10.0,19.0,35,0.00,,,0.00,meteohub,2013-07-12 16:47:00,
2013-07-12 10:53:00,78.4,49.3,29.54,SSW,195,10.0,16.0,36,0.00,,,0.00,meteohub,2013-07-12 16:53:00,
2013-07-12 11:00:00,77.4,47.5,29.55,SSW,201,6.0,17.0,35,0.00,,,0.00,meteohub,2013-07-12 17:00:00,
2013-07-12 11:05:00,77.2,49.6,29.54,South,178,11.0,21.0,38,0.00,,,0.00,meteohub,2013-07-12 17:05:00,
2013-07-12 11:11:00,76.8,48.6,29.54,South,173,7.0,21.0,37,0.00,,,0.00,meteohub,2013-07-12 17:11:00,
2013-07-12 11:17:00,77.0,49.5,29.54,South,180,8.0,15.0,38,0.00,,,0.00,meteohub,2013-07-12 17:17:00,
2013-07-12 11:23:00,77.7,47.8,29.54,SSW,206,7.0,15.0,35,0.00,,,0.00,meteohub,2013-07-12 17:23:00,
2013-07-12 11:29:00,78.4,48.6,29.54,South,189,9.0,16.0,35,0.00,,,0.00,meteohub,2013-07-12 17:29:00,
2013-07-12 11:36:00,78.4,48.6,29.54,South,187,8.0,19.0,35,0.00,,,0.00,meteohub,2013-07-12 17:36:00,
2013-07-12 11:42:00,79.2,47.7,29.54,South,186,11.0,19.0,33,0.00,,,0.00,meteohub,2013-07-12 17:42:00,
2013-07-12 11:48:00,79.0,45.7,29.53,SSW,197,13.0,19.0,31,0.00,,,0.00,meteohub,2013-07-12 17:48:00,
2013-07-12 11:54:00,78.6,45.5,29.54,SSW,201,11.0,16.0,31,0.00,,,0.00,meteohub,2013-07-12 17:54:00,
2013-07-12 12:00:00,78.1,45.0,29.54,SSW,199,7.0,17.0,31,0.00,,,0.00,meteohub,2013-07-12 18:00:00,
2013-07-12 12:06:00,78.3,45.1,29.53,SSW,212,11.0,17.0,31,0.00,,,0.00,meteohub,2013-07-12 18:06:00,
2013-07-12 12:12:00,78.3,45.1,29.53,SSW,205,6.0,17.0,31,0.00,,,0.00,meteohub,2013-07-12 18:12:00,
2013-07-12 12:18:00,77.5,44.6,29.54,SSW,207,8.0,15.0,31,0.00,,,0.00,meteohub,2013-07-12 18:18:00,
2013-07-12 12:24:00,77.0,45.7,29.54,SW,234,5.0,15.0,33,0.00,,,0.00,meteohub,2013-07-12 18:24:00,
2013-07-12 12:31:00,77.2,45.0,29.53,SSW,212,7.0,17.0,32,0.00,,,0.00,meteohub,2013-07-12 18:31:00,
2013-07-12 12:37:00,76.8,44.8,29.53,SW,214,11.0,15.0,32,0.00,,,0.00,meteohub,2013-07-12 18:37:00,
2013-07-12 12:42:00,76.6,47.7,29.53,South,184,13.0,15.0,36,0.00,,,0.00,meteohub,2013-07-12 18:42:00,
2013-07-12 12:50:00,75.6,39.2,29.52,WSW,247,10.0,15.0,27,0.00,,,0.00,meteohub,2013-07-12 18:50:00,
2013-07-12 12:56:00,75.9,40.5,29.53,West,269,8.0,22.0,28,0.00,,,0.00,meteohub,2013-07-12 18:56:00,
2013-07-12 13:02:00,76.5,46.8,29.53,South,191,4.0,22.0,35,0.00,,,0.00,meteohub,2013-07-12 19:02:00,
2013-07-12 13:09:00,75.6,47.5,29.53,South,172,7.0,22.0,37,0.00,,,0.00,meteohub,2013-07-12 19:09:00,
2013-07-12 13:15:00,75.4,46.6,29.53,South,189,8.0,12.0,36,0.00,,,0.00,meteohub,2013-07-12 19:15:00,
2013-07-12 13:21:00,74.7,47.3,29.53,South,191,8.0,13.0,38,0.00,,,0.00,meteohub,2013-07-12 19:21:00,
2013-07-12 13:27:00,73.9,47.5,29.53,SSW,198,9.0,18.0,39,0.00,,,0.00,meteohub,2013-07-12 19:27:00,
2013-07-12 13:33:00,73.8,48.0,29.53,South,189,11.0,18.0,40,0.00,,,0.00,meteohub,2013-07-12 19:33:00,
2013-07-12 13:39:00,73.6,47.8,29.53,South,182,8.0,18.0,40,0.00,,,0.00,meteohub,2013-07-12 19:39:00,
2013-07-12 13:45:00,73.6,46.4,29.53,SW,224,12.0,14.0,38,0.00,,,0.00,meteohub,2013-07-12 19:45:00,
2013-07-12 13:51:00,72.0,47.7,29.53,WSW,237,22.0,24.0,42,0.00,,,0.00,meteohub,2013-07-12 19:51:00,
2013-07-12 13:58:00,70.9,47.3,29.53,SW,220,15.0,28.0,43,0.00,,,0.00,meteohub,2013-07-12 19:58:00,
2013-07-12 14:04:00,70.9,48.6,29.53,WSW,245,12.0,28.0,45,0.00,,,0.00,meteohub,2013-07-12 20:04:00,
2013-07-12 14:10:00,71.1,48.0,29.53,WSW,240,9.0,25.0,44,0.00,,,0.00,meteohub,2013-07-12 20:10:00,
2013-07-12 14:16:00,72.7,46.9,29.53,WNW,288,13.0,25.0,40,0.00,,,0.00,meteohub,2013-07-12 20:16:00,
2013-07-12 14:22:00,72.7,46.9,29.53,West,261,13.0,25.0,40,0.00,,,0.00,meteohub,2013-07-12 20:22:00,
2013-07-12 14:29:00,72.3,45.3,29.53,WSW,255,8.0,25.0,38,0.00,,,0.00,meteohub,2013-07-12 20:29:00,
2013-07-12 14:35:00,73.2,46.0,29.53,West,277,18.0,25.0,38,0.00,,,0.00,meteohub,2013-07-12 20:35:00,
2013-07-12 14:41:00,74.7,45.9,29.53,West,272,10.0,26.0,36,0.00,,,0.00,meteohub,2013-07-12 20:41:00,
2013-07-12 14:47:00,75.9,46.2,29.54,WSW,247,8.0,26.0,35,0.00,,,0.00,meteohub,2013-07-12 20:47:00,
2013-07-12 14:53:00,77.2,46.6,29.53,WSW,239,13.0,25.0,34,0.00,,,0.00,meteohub,2013-07-12 20:53:00,
2013-07-12 14:59:00,77.2,45.9,29.53,WSW,256,13.0,23.0,33,0.00,,,0.00,meteohub,2013-07-12 20:59:00,
2013-07-12 15:05:00,78.1,46.6,29.53,WSW,246,15.0,22.0,33,0.00,,,0.00,meteohub,2013-07-12 21:05:00,
2013-07-12 15:11:00,78.6,47.1,29.53,West,265,12.0,21.0,33,0.00,,,0.00,meteohub,2013-07-12 21:11:00,
2013-07-12 15:17:00,79.0,45.7,29.54,SW,229,12.0,21.0,31,0.00,,,0.00,meteohub,2013-07-12 21:17:00,
2013-07-12 15:23:00,79.0,46.6,29.54,WSW,241,11.0,21.0,32,0.00,,,0.00,meteohub,2013-07-12 21:23:00,
2013-07-12 15:30:00,78.3,46.0,29.54,SW,234,10.0,21.0,32,0.00,,,0.00,meteohub,2013-07-12 21:30:00,
2013-07-12 15:36:00,79.2,46.8,29.54,West,272,13.0,22.0,32,0.00,,,0.00,meteohub,2013-07-12 21:36:00,
2013-07-12 15:42:00,78.1,45.9,29.54,WSW,239,12.0,22.0,32,0.00,,,0.00,meteohub,2013-07-12 21:42:00,
2013-07-12 15:48:00,77.2,47.5,29.54,West,267,9.0,22.0,35,0.00,,,0.00,meteohub,2013-07-12 21:48:00,
2013-07-12 15:54:00,77.2,47.5,29.54,West,265,13.0,21.0,35,0.00,,,0.00,meteohub,2013-07-12 21:54:00,
2013-07-12 16:00:00,76.1,47.1,29.54,West,268,18.0,23.0,36,0.00,,,0.00,meteohub,2013-07-12 22:00:00,
2013-07-12 16:07:00,75.9,47.8,29.54,WSW,249,12.0,23.0,37,0.00,,,0.00,meteohub,2013-07-12 22:07:00,
2013-07-12 16:12:00,75.7,46.9,29.54,WSW,239,13.0,23.0,36,0.00,,,0.00,meteohub,2013-07-12 22:12:00,
2013-07-12 16:19:00,75.4,46.6,29.54,WSW,237,13.0,20.0,36,0.00,,,0.00,meteohub,2013-07-12 22:19:00,
2013-07-12 16:25:00,75.0,46.2,29.54,WSW,245,11.0,21.0,36,0.00,,,0.00,meteohub,2013-07-12 22:25:00,
2013-07-12 16:31:00,75.0,46.9,29.54,SW,231,11.0,21.0,37,0.00,,,0.00,meteohub,2013-07-12 22:31:00,
2013-07-12 16:37:00,74.7,47.3,29.54,West,263,9.0,20.0,38,0.00,,,0.00,meteohub,2013-07-12 22:37:00,
2013-07-12 16:44:00,74.1,47.7,29.54,WSW,245,9.0,19.0,39,0.00,,,0.00,meteohub,2013-07-12 22:44:00,
2013-07-12 16:50:00,73.9,46.8,29.54,West,265,13.0,19.0,38,0.00,,,0.00,meteohub,2013-07-12 22:50:00,
2013-07-12 16:56:00,73.6,47.1,29.55,West,268,10.0,22.0,39,0.00,,,0.00,meteohub,2013-07-12 22:56:00,
2013-07-12 17:02:00,73.4,47.7,29.55,WSW,239,12.0,20.0,40,0.00,,,0.00,meteohub,2013-07-12 23:02:00,
2013-07-12 17:09:00,73.0,47.3,29.55,WSW,243,8.0,20.0,40,0.00,,,0.00,meteohub,2013-07-12 23:09:00,
2013-07-12 17:15:00,72.9,47.8,29.55,WSW,243,8.0,18.0,41,0.00,,,0.00,meteohub,2013-07-12 23:15:00,
2013-07-12 17:21:00,72.9,47.1,29.55,WSW,243,18.0,19.0,40,0.00,,,0.00,meteohub,2013-07-12 23:21:00,
2013-07-12 17:27:00,72.9,47.8,29.55,WSW,237,10.0,18.0,41,0.00,,,0.00,meteohub,2013-07-12 23:27:00,
2013-07-12 17:33:00,72.7,47.7,29.55,WSW,255,7.0,20.0,41,0.00,,,0.00,meteohub,2013-07-12 23:33:00,
2013-07-12 17:39:00,72.3,48.0,29.55,WSW,239,10.0,20.0,42,0.00,,,0.00,meteohub,2013-07-12 23:39:00,
2013-07-12 17:45:00,72.1,47.8,29.56,WSW,252,9.0,21.0,42,0.00,,,0.00,meteohub,2013-07-12 23:45:00,
2013-07-12 17:52:00,72.1,47.8,29.56,WSW,243,13.0,21.0,42,0.00,,,0.00,meteohub,2013-07-12 23:52:00,
2013-07-12 17:58:00,71.8,48.0,29.57,SW,230,21.0,22.0,43,0.00,,,0.00,meteohub,2013-07-12 23:58:00,
2013-07-12 18:04:00,71.1,48.6,29.57,WSW,253,9.0,24.0,45,0.00,,,0.00,meteohub,2013-07-13 00:04:00,
2013-07-12 18:10:00,70.9,47.8,29.58,West,263,12.0,24.0,44,0.00,,,0.00,meteohub,2013-07-13 00:10:00,
2013-07-12 18:17:00,70.3,48.0,29.58,West,270,13.0,22.0,45,0.00,,,0.00,meteohub,2013-07-13 00:17:00,
2013-07-12 18:23:00,70.0,48.2,29.59,WSW,241,14.0,20.0,46,0.00,,,0.00,meteohub,2013-07-13 00:23:00,
2013-07-12 18:29:00,69.6,48.6,29.59,West,262,7.0,20.0,47,0.00,,,0.00,meteohub,2013-07-13 00:29:00,
2013-07-12 18:35:00,69.4,48.4,29.59,West,266,14.0,19.0,47,0.00,,,0.00,meteohub,2013-07-13 00:35:00,
2013-07-12 18:41:00,69.6,48.6,29.59,West,269,7.0,23.0,47,0.00,,,0.00,meteohub,2013-07-13 00:41:00,
2013-07-12 18:47:00,69.6,48.6,29.59,WSW,243,10.0,23.0,47,0.00,,,0.00,meteohub,2013-07-13 00:47:00,
2013-07-12 18:53:00,69.4,48.4,29.59,West,278,5.0,22.0,47,0.00,,,0.00,meteohub,2013-07-13 00:53:00,
2013-07-12 18:59:00,69.4,47.8,29.60,NW,314,5.0,22.0,46,0.00,,,0.00,meteohub,2013-07-13 00:59:00,
2013-07-12 19:05:00,69.6,48.6,29.60,NW,305,3.0,17.0,47,0.00,,,0.00,meteohub,2013-07-13 01:05:00,
2013-07-12 19:11:00,69.8,48.0,29.60,WNW,297,3.0,12.0,46,0.00,,,0.00,meteohub,2013-07-13 01:11:00,
2013-07-12 19:17:00,70.0,48.2,29.60,NNW,341,10.0,16.0,46,0.00,,,0.00,meteohub,2013-07-13 01:17:00,
2013-07-12 19:23:00,69.4,48.4,29.60,West,275,4.0,16.0,47,0.00,,,0.00,meteohub,2013-07-13 01:23:00,
2013-07-12 19:29:00,69.3,48.2,29.60,WSW,253,8.0,13.0,47,0.00,,,0.00,meteohub,2013-07-13 01:29:00,
2013-07-12 19:35:00,69.3,48.2,29.60,West,268,7.0,11.0,47,0.00,,,0.00,meteohub,2013-07-13 01:35:00,
2013-07-12 19:41:00,69.1,48.6,29.60,WNW,282,3.0,13.0,48,0.00,,,0.00,meteohub,2013-07-13 01:41:00,
2013-07-12 19:47:00,69.1,48.6,29.61,West,280,1.0,13.0,48,0.00,,,0.00,meteohub,2013-07-13 01:47:00,
2013-07-12 19:53:00,68.9,47.8,29.61,West,280,1.0,9.0,47,0.00,,,0.00,meteohub,2013-07-13 01:53:00,
2013-07-12 19:59:00,69.1,48.0,29.61,WNW,292,2.0,8.0,47,0.00,,,0.00,meteohub,2013-07-13 01:59:00,
2013-07-12 20:05:00,68.9,47.8,29.61,WNW,292,4.0,6.0,47,0.00,,,0.00,meteohub,2013-07-13 02:05:00,
2013-07-12 20:11:00,68.7,48.2,29.61,WNW,292,2.0,5.0,48,0.00,,,0.00,meteohub,2013-07-13 02:11:00,
2013-07-12 20:18:00,68.5,48.0,29.61,WNW,292,1.0,5.0,48,0.00,,,0.00,meteohub,2013-07-13 02:18:00,
2013-07-12 20:24:00,68.2,47.7,29.61,NNW,334,2.0,5.0,48,0.00,,,0.00,meteohub,2013-07-13 02:24:00,
2013-07-12 20:30:00,67.8,48.0,29.61,NNW,334,1.0,6.0,49,0.00,,,0.00,meteohub,2013-07-13 02:30:00,
2013-07-12 20:36:00,67.6,48.4,29.61,NNW,334,3.0,6.0,50,0.00,,,0.00,meteohub,2013-07-13 02:36:00,
2013-07-12 20:42:00,67.3,48.0,29.61,NNW,334,2.0,6.0,50,0.00,,,0.00,meteohub,2013-07-13 02:42:00,
2013-07-12 20:48:00,67.1,48.4,29.61,NNW,334,1.0,6.0,51,0.00,,,0.00,meteohub,2013-07-13 02:48:00,
2013-07-12 20:54:00,66.7,48.6,29.61,NNW,334,1.0,3.0,52,0.00,,,0.00,meteohub,2013-07-13 02:54:00,
2013-07-12 21:00:00,66.7,48.6,29.61,NNW,334,2.0,3.0,52,0.00,,,0.00,meteohub,2013-07-13 03:00:00,
2013-07-12 21:07:00,66.4,48.2,29.61,NNW,334,1.0,3.0,52,0.00,,,0.00,meteohub,2013-07-13 03:07:00,
2013-07-12 21:13:00,66.0,48.4,29.61,NNW,334,0.0,3.0,53,0.00,,,0.00,meteohub,2013-07-13 03:13:00,
2013-07-12 21:19:00,65.7,48.6,29.61,NNW,334,0.0,2.0,54,0.00,,,0.00,meteohub,2013-07-13 03:19:00,
2013-07-12 21:25:00,65.1,48.0,29.61,NNW,334,0.0,2.0,54,0.00,,,0.00,meteohub,2013-07-13 03:25:00,
2013-07-12 21:31:00,64.6,48.0,29.61,NNW,334,3.0,3.0,55,0.00,,,0.00,meteohub,2013-07-13 03:31:00,
2013-07-12 21:37:00,64.0,48.0,29.61,NNW,333,4.0,4.0,56,0.00,,,0.00,meteohub,2013-07-13 03:37:00,
2013-07-12 21:43:00,63.9,47.8,29.61,NNW,334,2.0,5.0,56,0.00,,,0.00,meteohub,2013-07-13 03:43:00,
2013-07-12 21:49:00,63.7,48.2,29.62,NNW,333,3.0,5.0,57,0.00,,,0.00,meteohub,2013-07-13 03:49:00,
2013-07-12 21:55:00,63.3,47.8,29.62,NNW,333,3.0,5.0,57,0.00,,,0.00,meteohub,2013-07-13 03:55:00,
2013-07-12 22:01:00,63.1,47.7,29.62,WNW,300,4.0,7.0,57,0.00,,,0.00,meteohub,2013-07-13 04:01:00,
2013-07-12 22:02:00,63.1,47.7,29.62,WNW,300,4.0,7.0,57,0.00,,,0.00,meteohub,2013-07-13 04:02:00,
2013-07-12 22:04:00,63.1,47.7,29.62,WNW,295,5.0,7.0,57,0.00,,,0.00,meteohub,2013-07-13 04:04:00,
2013-07-12 22:10:00,63.1,47.7,29.62,WNW,289,3.0,8.0,57,0.00,,,0.00,meteohub,2013-07-13 04:10:00,
2013-07-12 22:16:00,63.0,47.5,29.62,WNW,289,4.0,8.0,57,0.00,,,0.00,meteohub,2013-07-13 04:16:00,
2013-07-12 22:19:00,63.0,47.5,29.63,WNW,285,6.0,8.0,57,0.00,,,0.00,meteohub,2013-07-13 04:19:00,
2013-07-12 22:25:00,63.0,47.5,29.63,WNW,284,4.0,7.0,57,0.00,,,0.00,meteohub,2013-07-13 04:25:00,
2013-07-12 22:31:00,63.0,47.5,29.63,WNW,283,7.0,7.0,57,0.00,,,0.00,meteohub,2013-07-13 04:31:00,
2013-07-12 22:38:00,63.1,47.1,29.63,WNW,282,6.0,7.0,56,0.00,,,0.00,meteohub,2013-07-13 04:38:00,
2013-07-12 22:44:00,63.3,46.9,29.63,West,281,5.0,8.0,55,0.00,,,0.00,meteohub,2013-07-13 04:44:00,
2013-07-12 22:50:00,63.3,46.9,29.64,West,281,4.0,8.0,55,0.00,,,0.00,meteohub,2013-07-13 04:50:00,
2013-07-12 22:56:00,63.1,46.8,29.64,West,281,5.0,7.0,55,0.00,,,0.00,meteohub,2013-07-13 04:56:00,
2013-07-12 23:02:00,63.1,46.8,29.64,West,281,5.0,7.0,55,0.00,,,0.00,meteohub,2013-07-13 05:02:00,
2013-07-12 23:08:00,63.1,46.8,29.64,West,280,6.0,7.0,55,0.00,,,0.00,meteohub,2013-07-13 05:08:00,
2013-07-12 23:14:00,63.0,46.0,29.64,West,280,3.0,8.0,54,0.00,,,0.00,meteohub,2013-07-13 05:14:00,
2013-07-12 23:20:00,62.8,45.9,29.65,West,280,3.0,8.0,54,0.00,,,0.00,meteohub,2013-07-13 05:20:00,
2013-07-12 23:26:00,62.8,45.9,29.65,West,280,0.0,5.0,54,0.00,,,0.00,meteohub,2013-07-13 05:26:00,
2013-07-12 23:32:00,62.8,45.9,29.65,West,280,1.0,4.0,54,0.00,,,0.00,meteohub,2013-07-13 05:32:00,
2013-07-12 23:38:00,63.1,46.2,29.65,West,280,0.0,5.0,54,0.00,,,0.00,meteohub,2013-07-13 05:38:00,
2013-07-12 23:44:00,63.3,46.9,29.65,West,280,1.0,5.0,55,0.00,,,0.00,meteohub,2013-07-13 05:44:00,
2013-07-12 23:50:00,63.7,47.3,29.66,West,280,0.0,3.0,55,0.00,,,0.00,meteohub,2013-07-13 05:50:00,
2013-07-12 23:56:00,63.9,47.3,29.66,West,280,0.0,3.0,55,0.00,,,0.00,meteohub,2013-07-13 05:56:00,